EZY76FU EGGD-LGSK

Flight info

Callsign EZY76FU
Flight time 3h 31m
Altitude 37000
Route YORQI DCT NUCHU L607 BIG L15 MOTOX DCT RUCAC DCT LESDO DCT ETINO DCT LASAT DCT DEVDI DCT RIPUS DCT RESIA DCT NIKOL DCT AIOSA DCT PAPIZ DCT DIMIS UL604 YNN/N0413F310 UY121 AGH/N0362F230 T6 EVIKO
Aircraft A320/M-SDE2E3FGHIJ1RWXYZ/LB1

Departure

Time 2026-04-25 08:34
Airport Bristol Airport (EGGD)

Arrival

Time 2026-04-25 12:05
Airport Skiathos Island National Airport (LGSK)
Time Latitude Longitude Altitude Speed Heading
2026-04-25 08:14 51.38547 -2.71416 613 ft 0 kts 356°
2026-04-25 08:25 51.38545 -2.71416 612 ft 3 kts 356°
2026-04-25 08:25 51.38518 -2.71413 613 ft 4 kts 356°
2026-04-25 08:25 51.38491 -2.71411 617 ft 4 kts 356°
2026-04-25 08:25 51.38472 -2.71409 619 ft 4 kts 352°
2026-04-25 08:26 51.38451 -2.71391 624 ft 4 kts 285°
2026-04-25 08:26 51.38449 -2.71358 628 ft 0 kts 266°
2026-04-25 08:28 51.38449 -2.71359 628 ft 1 kts 266°
2026-04-25 08:28 51.38449 -2.71380 622 ft 1 kts 266°
2026-04-25 08:28 51.38448 -2.71402 624 ft 5 kts 266°
2026-04-25 08:29 51.38444 -2.71496 613 ft 12 kts 266°
2026-04-25 08:29 51.38438 -2.71638 621 ft 13 kts 266°
2026-04-25 08:29 51.38432 -2.71782 606 ft 12 kts 267°
2026-04-25 08:29 51.38431 -2.71911 606 ft 11 kts 272°
2026-04-25 08:30 51.38432 -2.72020 605 ft 9 kts 268°
2026-04-25 08:30 51.38429 -2.72122 610 ft 10 kts 266°
2026-04-25 08:30 51.38424 -2.72257 619 ft 12 kts 267°
2026-04-25 08:30 51.38419 -2.72370 611 ft 8 kts 265°
2026-04-25 08:31 51.38416 -2.72442 612 ft 5 kts 265°
2026-04-25 08:31 51.38411 -2.72540 617 ft 15 kts 266°
2026-04-25 08:31 51.38404 -2.72742 617 ft 19 kts 267°
2026-04-25 08:31 51.38396 -2.72964 604 ft 21 kts 266°
2026-04-25 08:32 51.38388 -2.73148 607 ft 12 kts 266°
2026-04-25 08:32 51.38383 -2.73256 611 ft 8 kts 259°
2026-04-25 08:32 51.38363 -2.73309 627 ft 5 kts 228°
2026-04-25 08:32 51.38305 -2.73344 617 ft 12 kts 181°
2026-04-25 08:33 51.38243 -2.73331 621 ft 8 kts 158°
2026-04-25 08:33 51.38212 -2.73283 629 ft 2 kts 93°
2026-04-25 08:33 51.38212 -2.73280 629 ft 0 kts 89°
2026-04-25 08:33 51.38217 -2.73183 631 ft 39 kts 85°
2026-04-25 08:34 51.38251 -2.72328 626 ft 112 kts 86°
2026-04-25 08:34 51.38313 -2.70752 671 ft 163 kts 86°
2026-04-25 08:34 51.38370 -2.68986 1507 ft 157 kts 88°
2026-04-25 08:34 51.38426 -2.67244 2248 ft 159 kts 88°
2026-04-25 08:35 51.38483 -2.65353 2515 ft 181 kts 88°
2026-04-25 08:35 51.38543 -2.63208 2789 ft 205 kts 88°
2026-04-25 08:35 51.38617 -2.60797 3110 ft 229 kts 88°
2026-04-25 08:35 51.38706 -2.58117 3554 ft 251 kts 85°
2026-04-25 08:36 51.39264 -2.55468 4200 ft 264 kts 53°
2026-04-25 08:36 51.40681 -2.53564 4990 ft 271 kts 33°
2026-04-25 08:36 51.42320 -2.52011 5723 ft 277 kts 30°
2026-04-25 08:36 51.44012 -2.50530 5954 ft 278 kts 28°
2026-04-25 08:37 51.45709 -2.49038 6089 ft 280 kts 30°
2026-04-25 08:37 51.47389 -2.47448 6959 ft 280 kts 31°
2026-04-25 08:37 51.49056 -2.45813 7798 ft 283 kts 31°
2026-04-25 08:37 51.50627 -2.43886 8554 ft 288 kts 49°
2026-04-25 08:38 51.51636 -2.41107 9320 ft 292 kts 73°
2026-04-25 08:38 51.51867 -2.37867 10083 ft 296 kts 95°
2026-04-25 08:38 51.51646 -2.34577 10567 ft 310 kts 97°
2026-04-25 08:38 51.51396 -2.31007 10780 ft 332 kts 97°
2026-04-25 08:39 51.51135 -2.27265 11330 ft 341 kts 96°
2026-04-25 08:39 51.50872 -2.23458 12026 ft 345 kts 96°
2026-04-25 08:39 51.50607 -2.19621 12750 ft 347 kts 97°
2026-04-25 08:39 51.50341 -2.15751 13470 ft 350 kts 97°
2026-04-25 08:40 51.50073 -2.11849 14158 ft 353 kts 97°
2026-04-25 08:40 51.49799 -2.07909 14749 ft 357 kts 97°
2026-04-25 08:40 51.49517 -2.03935 15314 ft 361 kts 97°
2026-04-25 08:40 51.49236 -1.99967 15878 ft 365 kts 97°
2026-04-25 08:41 51.48948 -1.95898 16453 ft 369 kts 97°
2026-04-25 08:41 51.48654 -1.91791 17007 ft 373 kts 97°
2026-04-25 08:41 51.48356 -1.87632 17569 ft 377 kts 97°
2026-04-25 08:41 51.48049 -1.83429 18126 ft 381 kts 98°
2026-04-25 08:42 51.47737 -1.79185 18658 ft 385 kts 98°
2026-04-25 08:42 51.47420 -1.74900 19141 ft 389 kts 98°
2026-04-25 08:42 51.47107 -1.70634 19614 ft 392 kts 98°
2026-04-25 08:42 51.46714 -1.66298 20102 ft 394 kts 103°
2026-04-25 08:43 51.46132 -1.61991 20578 ft 397 kts 104°
2026-04-25 08:43 51.45539 -1.57650 21050 ft 400 kts 104°
2026-04-25 08:43 51.44938 -1.53284 21521 ft 403 kts 104°
2026-04-25 08:43 51.44331 -1.48886 21978 ft 406 kts 104°
2026-04-25 08:44 51.43721 -1.44455 22440 ft 408 kts 104°
2026-04-25 08:44 51.43107 -1.39993 22876 ft 412 kts 104°
2026-04-25 08:44 51.42490 -1.35501 23298 ft 415 kts 104°
2026-04-25 08:44 51.41865 -1.30966 23737 ft 418 kts 104°
2026-04-25 08:45 51.41240 -1.26462 24092 ft 421 kts 104°
2026-04-25 08:45 51.40599 -1.21877 24461 ft 424 kts 104°
2026-04-25 08:45 51.39952 -1.17260 24818 ft 426 kts 104°
2026-04-25 08:45 51.39503 -1.12559 25159 ft 430 kts 96°
2026-04-25 08:46 51.39270 -1.07764 25513 ft 432 kts 96°
2026-04-25 08:46 51.39032 -1.02959 25857 ft 435 kts 96°
2026-04-25 08:46 51.38786 -0.98118 26197 ft 437 kts 96°
2026-04-25 08:46 51.38535 -0.93259 26535 ft 439 kts 96°
2026-04-25 08:47 51.38279 -0.88377 26854 ft 442 kts 96°
2026-04-25 08:47 51.38022 -0.83526 27173 ft 444 kts 96°
2026-04-25 08:47 51.37760 -0.78589 27498 ft 446 kts 96°
2026-04-25 08:47 51.37494 -0.73626 27821 ft 449 kts 97°
2026-04-25 08:48 51.37223 -0.68641 28140 ft 451 kts 97°
2026-04-25 08:48 51.36951 -0.63636 28458 ft 453 kts 97°
2026-04-25 08:48 51.36677 -0.58604 28760 ft 455 kts 97°
2026-04-25 08:48 51.36401 -0.53549 29081 ft 457 kts 97°
2026-04-25 08:49 51.36119 -0.48461 29387 ft 460 kts 97°
2026-04-25 08:49 51.35832 -0.43357 29688 ft 462 kts 97°
2026-04-25 08:49 51.35541 -0.38236 29968 ft 464 kts 97°
2026-04-25 08:49 51.35245 -0.33085 30250 ft 466 kts 97°
2026-04-25 08:50 51.34947 -0.27918 30490 ft 468 kts 97°
2026-04-25 08:50 51.34648 -0.22733 30726 ft 469 kts 97°
2026-04-25 08:50 51.34350 -0.17589 30959 ft 471 kts 97°
2026-04-25 08:50 51.34046 -0.12381 31210 ft 472 kts 97°
2026-04-25 08:51 51.33737 -0.07166 31546 ft 470 kts 97°
2026-04-25 08:51 51.33427 -0.01966 31875 ft 469 kts 98°
2026-04-25 08:51 51.32909 0.03168 32181 ft 466 kts 106°
2026-04-25 08:51 51.31936 0.08086 32487 ft 463 kts 115°
2026-04-25 08:52 51.31133 0.11236 32693 ft 462 kts 115°
2026-04-25 08:52 51.29918 0.15995 33017 ft 462 kts 115°
2026-04-25 08:52 51.28318 0.22279 33438 ft 461 kts 115°
2026-04-25 08:52 51.27114 0.27016 33770 ft 460 kts 115°
2026-04-25 08:53 51.25910 0.31741 34086 ft 459 kts 115°
2026-04-25 08:53 51.24706 0.36458 34388 ft 459 kts 115°
2026-04-25 08:53 51.23891 0.39639 34566 ft 458 kts 115°
2026-04-25 08:53 51.22701 0.44275 34844 ft 457 kts 115°
2026-04-25 08:54 51.21495 0.48967 35093 ft 457 kts 114°
2026-04-25 08:54 51.20288 0.53651 35303 ft 457 kts 114°
2026-04-25 08:54 51.19078 0.58339 35528 ft 457 kts 114°
2026-04-25 08:54 51.17865 0.63016 35751 ft 456 kts 114°
2026-04-25 08:55 51.16651 0.67682 35967 ft 456 kts 114°
2026-04-25 08:55 51.15437 0.72343 36185 ft 455 kts 114°
2026-04-25 08:55 51.14222 0.77005 36397 ft 455 kts 114°
2026-04-25 08:55 51.13026 0.81592 36600 ft 454 kts 114°
2026-04-25 08:56 51.11812 0.86231 36806 ft 454 kts 114°
2026-04-25 08:56 51.10595 0.90864 36995 ft 454 kts 114°
2026-04-25 08:56 51.09374 0.95493 37088 ft 454 kts 114°
2026-04-25 08:57 51.06924 1.04761 37089 ft 455 kts 114°
2026-04-25 08:57 51.05704 1.09389 37196 ft 454 kts 114°
2026-04-25 08:57 51.04482 1.14016 37241 ft 454 kts 114°
2026-04-25 08:58 51.02054 1.23184 37241 ft 453 kts 114°
2026-04-25 08:58 50.99596 1.32395 37236 ft 453 kts 114°
2026-04-25 08:59 50.97130 1.41591 37237 ft 453 kts 114°
2026-04-25 08:59 50.94651 1.50796 37226 ft 454 kts 114°
2026-04-25 09:00 50.92161 1.60008 37227 ft 455 kts 114°
2026-04-25 09:00 50.89670 1.69142 37226 ft 455 kts 117°
2026-04-25 09:01 50.86156 1.77363 37206 ft 450 kts 135°
2026-04-25 09:01 50.81671 1.84233 37215 ft 449 kts 138°
2026-04-25 09:02 50.77148 1.91042 37231 ft 449 kts 138°
2026-04-25 09:02 50.72610 1.97857 37226 ft 451 kts 138°
2026-04-25 09:03 50.68092 2.04634 37218 ft 452 kts 138°
2026-04-25 09:03 50.63533 2.11448 37219 ft 452 kts 138°
2026-04-25 09:04 50.58966 2.18256 37222 ft 452 kts 138°
2026-04-25 09:04 50.54393 2.25046 37228 ft 452 kts 139°
2026-04-25 09:05 50.49852 2.31774 37234 ft 452 kts 138°
2026-04-25 09:05 50.45278 2.38541 37220 ft 452 kts 139°
2026-04-25 09:06 50.40686 2.45300 37220 ft 453 kts 139°
2026-04-25 09:06 50.36087 2.52058 37206 ft 453 kts 139°
2026-04-25 09:07 50.31516 2.58762 37216 ft 453 kts 139°
2026-04-25 09:07 50.26909 2.65495 37222 ft 453 kts 139°
2026-04-25 09:08 50.22297 2.72218 37226 ft 453 kts 139°
2026-04-25 09:08 50.17677 2.78927 37222 ft 454 kts 139°
2026-04-25 09:09 50.13050 2.85623 37212 ft 454 kts 139°
2026-04-25 09:09 50.08418 2.92307 37214 ft 454 kts 139°
2026-04-25 09:10 50.03813 2.98950 37214 ft 454 kts 139°
2026-04-25 09:10 49.99172 3.05627 37213 ft 454 kts 139°
2026-04-25 09:11 49.92206 3.15610 37208 ft 454 kts 139°
2026-04-25 09:11 49.87589 3.22208 37213 ft 454 kts 139°
2026-04-25 09:12 49.82932 3.28829 37207 ft 455 kts 139°
2026-04-25 09:12 49.78648 3.36042 37204 ft 456 kts 129°
2026-04-25 09:13 49.74706 3.43736 37203 ft 457 kts 129°
2026-04-25 09:13 49.70750 3.51420 37199 ft 457 kts 129°
2026-04-25 09:14 49.66814 3.59032 37195 ft 457 kts 130°
2026-04-25 09:14 49.62843 3.66677 37201 ft 457 kts 129°
2026-04-25 09:15 49.58865 3.74323 37200 ft 457 kts 130°
2026-04-25 09:15 49.54882 3.81950 37199 ft 457 kts 130°
2026-04-25 09:16 49.50898 3.89572 37200 ft 457 kts 130°
2026-04-25 09:16 49.46928 3.97134 37200 ft 457 kts 130°
2026-04-25 09:17 49.40937 4.08528 37196 ft 457 kts 130°
2026-04-25 09:18 49.36931 4.16110 37198 ft 457 kts 130°
2026-04-25 09:18 49.32916 4.23663 37198 ft 457 kts 130°
2026-04-25 09:19 49.28930 4.31162 37201 ft 457 kts 130°
2026-04-25 09:19 49.24913 4.38715 37199 ft 457 kts 130°
2026-04-25 09:20 49.20896 4.46243 37191 ft 457 kts 130°
2026-04-25 09:20 49.16866 4.53756 37193 ft 457 kts 130°
2026-04-25 09:21 49.12860 4.61200 37190 ft 457 kts 130°
2026-04-25 09:21 49.08821 4.68687 37188 ft 457 kts 130°
2026-04-25 09:22 49.04785 4.76160 37184 ft 457 kts 130°
2026-04-25 09:22 49.00742 4.83626 37187 ft 457 kts 130°
2026-04-25 09:23 48.96723 4.91033 37180 ft 457 kts 130°
2026-04-25 09:23 48.92666 4.98465 37174 ft 456 kts 130°
2026-04-25 09:24 48.88640 5.05918 37176 ft 457 kts 126°
2026-04-25 09:24 48.85117 5.13951 37176 ft 457 kts 124°
2026-04-25 09:25 48.81615 5.21995 37178 ft 457 kts 124°
2026-04-25 09:25 48.78129 5.29976 37176 ft 457 kts 124°
2026-04-25 09:26 48.74606 5.37988 37172 ft 457 kts 124°
2026-04-25 09:26 48.71083 5.46000 37169 ft 457 kts 124°
2026-04-25 09:27 48.67553 5.53995 37169 ft 457 kts 124°
2026-04-25 09:27 48.64041 5.61933 37167 ft 457 kts 124°
2026-04-25 09:28 48.60506 5.69913 37177 ft 457 kts 124°
2026-04-25 09:28 48.56963 5.77870 37175 ft 457 kts 124°
2026-04-25 09:29 48.53408 5.85818 37170 ft 457 kts 124°
2026-04-25 09:29 48.49846 5.93755 37157 ft 457 kts 124°
2026-04-25 09:30 48.46313 6.01633 37164 ft 457 kts 124°
2026-04-25 09:30 48.42751 6.09553 37176 ft 457 kts 124°
2026-04-25 09:31 48.39172 6.17451 37177 ft 457 kts 124°
2026-04-25 09:31 48.35593 6.25349 37173 ft 457 kts 124°
2026-04-25 09:32 48.32040 6.33181 37169 ft 457 kts 124°
2026-04-25 09:32 48.28455 6.41057 37164 ft 457 kts 124°
2026-04-25 09:33 48.24862 6.48920 37163 ft 457 kts 123°
2026-04-25 09:33 48.21261 6.56759 37156 ft 457 kts 123°
2026-04-25 09:34 48.17679 6.64539 37149 ft 456 kts 123°
2026-04-25 09:34 48.14051 6.72353 37147 ft 457 kts 124°
2026-04-25 09:35 48.10348 6.80071 37143 ft 457 kts 125°
2026-04-25 09:35 48.06616 6.87748 37161 ft 456 kts 125°
2026-04-25 09:36 48.02920 6.95367 37158 ft 455 kts 125°
2026-04-25 09:36 47.99215 7.03029 37151 ft 455 kts 124°
2026-04-25 09:37 47.95508 7.10677 37147 ft 455 kts 125°
2026-04-25 09:37 47.91790 7.18314 37149 ft 455 kts 125°
2026-04-25 09:38 47.88091 7.25892 37166 ft 455 kts 126°
2026-04-25 09:38 47.84368 7.33498 37168 ft 454 kts 126°
2026-04-25 09:39 47.80644 7.41078 37177 ft 453 kts 126°
2026-04-25 09:39 47.76919 7.48640 37174 ft 453 kts 126°
2026-04-25 09:40 47.71323 7.59967 37149 ft 454 kts 127°
2026-04-25 09:40 47.67615 7.67457 37156 ft 453 kts 127°
2026-04-25 09:41 47.63876 7.74973 37159 ft 452 kts 127°
2026-04-25 09:41 47.60140 7.82466 37159 ft 452 kts 127°
2026-04-25 09:42 47.56404 7.89945 37156 ft 452 kts 127°
2026-04-25 09:42 47.52687 7.97352 37158 ft 451 kts 127°
2026-04-25 09:43 47.48942 8.04815 37146 ft 452 kts 128°
2026-04-25 09:43 47.45192 8.12284 37144 ft 452 kts 128°
2026-04-25 09:44 47.41430 8.19740 37148 ft 453 kts 128°
2026-04-25 09:44 47.37677 8.27131 37150 ft 453 kts 128°
2026-04-25 09:45 47.33897 8.34567 37145 ft 453 kts 129°
2026-04-25 09:45 47.30117 8.41991 37156 ft 453 kts 129°
2026-04-25 09:46 47.26326 8.49398 37165 ft 453 kts 129°
2026-04-25 09:46 47.22607 8.56800 37160 ft 453 kts 128°
2026-04-25 09:47 47.18925 8.64337 37157 ft 454 kts 128°
2026-04-25 09:47 47.15232 8.71857 37149 ft 454 kts 129°
2026-04-25 09:48 47.11515 8.79338 37161 ft 453 kts 129°
2026-04-25 09:48 47.07809 8.86744 37165 ft 453 kts 129°
2026-04-25 09:49 47.04076 8.94186 37172 ft 453 kts 129°
2026-04-25 09:49 47.00346 9.01621 37148 ft 453 kts 129°
2026-04-25 09:50 46.96613 9.09069 37156 ft 453 kts 129°
2026-04-25 09:50 46.92878 9.16496 37164 ft 453 kts 129°
2026-04-25 09:51 46.89152 9.23853 37175 ft 453 kts 130°
2026-04-25 09:51 46.85400 9.31243 37172 ft 452 kts 129°
2026-04-25 09:52 46.81651 9.38624 37178 ft 453 kts 130°
2026-04-25 09:52 46.77900 9.46003 37148 ft 453 kts 130°
2026-04-25 09:53 46.74134 9.53382 37163 ft 453 kts 130°
2026-04-25 09:53 46.70391 9.60691 37166 ft 453 kts 130°
2026-04-25 09:54 46.66614 9.68047 37168 ft 454 kts 130°
2026-04-25 09:54 46.62826 9.75396 37163 ft 453 kts 130°
2026-04-25 09:55 46.59064 9.82677 37165 ft 453 kts 130°
2026-04-25 09:55 46.55280 9.90003 37171 ft 453 kts 130°
2026-04-25 09:56 46.51495 9.97320 37167 ft 452 kts 130°
2026-04-25 09:56 46.47699 10.04592 37167 ft 452 kts 131°
2026-04-25 09:57 46.43730 10.11656 37165 ft 451 kts 133°
2026-04-25 09:57 46.39655 10.18496 37168 ft 451 kts 134°
2026-04-25 09:58 46.35565 10.25371 37167 ft 451 kts 134°
2026-04-25 09:58 46.31513 10.32301 37158 ft 451 kts 133°
2026-04-25 09:59 46.27478 10.39229 37153 ft 450 kts 133°
2026-04-25 09:59 46.23432 10.46141 37138 ft 451 kts 133°
2026-04-25 10:00 46.19398 10.52992 37138 ft 450 kts 134°
2026-04-25 10:00 46.15330 10.59865 37123 ft 450 kts 134°
2026-04-25 10:01 46.11262 10.66722 37127 ft 450 kts 134°
2026-04-25 10:01 46.07187 10.73576 37122 ft 450 kts 134°
2026-04-25 10:02 46.03112 10.80429 37112 ft 450 kts 134°
2026-04-25 10:02 45.99067 10.87224 37111 ft 450 kts 134°
2026-04-25 10:03 45.94990 10.94056 37107 ft 450 kts 134°
2026-04-25 10:03 45.90908 11.00862 37105 ft 450 kts 134°
2026-04-25 10:04 45.86819 11.07661 37104 ft 450 kts 134°
2026-04-25 10:04 45.82759 11.14399 37098 ft 449 kts 134°
2026-04-25 10:05 45.78670 11.21170 37102 ft 449 kts 133°
2026-04-25 10:05 45.74578 11.27924 37096 ft 448 kts 134°
2026-04-25 10:06 45.70489 11.34662 37094 ft 448 kts 134°
2026-04-25 10:06 45.66424 11.41345 37090 ft 448 kts 134°
2026-04-25 10:07 45.62329 11.48059 37093 ft 448 kts 134°
2026-04-25 10:07 45.58231 11.54764 37078 ft 448 kts 134°
2026-04-25 10:08 45.54134 11.61455 37091 ft 447 kts 134°
2026-04-25 10:08 45.50067 11.68076 37092 ft 447 kts 134°
2026-04-25 10:09 45.45970 11.74734 37104 ft 446 kts 134°
2026-04-25 10:09 45.41879 11.81366 37093 ft 446 kts 134°
2026-04-25 10:10 45.37782 11.87984 37095 ft 445 kts 134°
2026-04-25 10:10 45.33682 11.94582 37088 ft 445 kts 134°
2026-04-25 10:11 45.29610 12.01134 37099 ft 445 kts 134°
2026-04-25 10:11 45.25517 12.07711 37091 ft 444 kts 134°
2026-04-25 10:12 45.21418 12.14276 37087 ft 444 kts 134°
2026-04-25 10:13 45.15263 12.24102 37086 ft 444 kts 134°
2026-04-25 10:13 45.11183 12.30596 37089 ft 444 kts 134°
2026-04-25 10:14 45.07076 12.37125 37089 ft 444 kts 133°
2026-04-25 10:14 45.02963 12.43637 37089 ft 444 kts 133°
2026-04-25 10:15 44.98849 12.50138 37087 ft 444 kts 133°
2026-04-25 10:15 44.94737 12.56633 37095 ft 444 kts 133°
2026-04-25 10:16 44.90642 12.63068 37107 ft 444 kts 134°
2026-04-25 10:16 44.86516 12.69538 37101 ft 443 kts 133°
2026-04-25 10:17 44.82389 12.75990 37111 ft 443 kts 133°
2026-04-25 10:17 44.78270 12.82426 37097 ft 442 kts 133°
2026-04-25 10:18 44.74184 12.88805 37114 ft 442 kts 133°
2026-04-25 10:18 44.70061 12.95208 37105 ft 441 kts 133°
2026-04-25 10:19 44.65934 13.01600 37104 ft 441 kts 133°
2026-04-25 10:19 44.61815 13.07983 37111 ft 441 kts 133°
2026-04-25 10:20 44.57727 13.14314 37112 ft 440 kts 133°
2026-04-25 10:20 44.53609 13.20669 37100 ft 440 kts 133°
2026-04-25 10:21 44.49491 13.27003 37110 ft 440 kts 133°
2026-04-25 10:21 44.45370 13.33327 37091 ft 439 kts 133°
2026-04-25 10:22 44.41276 13.39586 37100 ft 439 kts 133°
2026-04-25 10:22 44.37157 13.45882 37104 ft 439 kts 133°
2026-04-25 10:23 44.33035 13.52161 37104 ft 438 kts 133°
2026-04-25 10:23 44.28913 13.58425 37111 ft 438 kts 133°
2026-04-25 10:24 44.24820 13.64631 37110 ft 437 kts 133°
2026-04-25 10:24 44.20715 13.70892 37104 ft 437 kts 132°
2026-04-25 10:25 44.16778 13.77347 37103 ft 437 kts 130°
2026-04-25 10:25 44.12914 13.83885 37118 ft 437 kts 129°
2026-04-25 10:26 44.09022 13.90363 37109 ft 436 kts 130°
2026-04-25 10:26 44.05121 13.96745 37113 ft 436 kts 130°
2026-04-25 10:27 44.01182 14.03156 37099 ft 436 kts 130°
2026-04-25 10:27 43.97250 14.09552 37100 ft 436 kts 130°
2026-04-25 10:28 43.93317 14.15950 37106 ft 436 kts 130°
2026-04-25 10:28 43.89410 14.22307 37115 ft 436 kts 130°
2026-04-25 10:29 43.85475 14.28687 37116 ft 435 kts 130°
2026-04-25 10:29 43.81538 14.35051 37117 ft 435 kts 130°
2026-04-25 10:30 43.77597 14.41410 37112 ft 435 kts 130°
2026-04-25 10:30 43.73685 14.47715 37110 ft 435 kts 130°
2026-04-25 10:31 43.69742 14.54050 37107 ft 435 kts 130°
2026-04-25 10:31 43.65791 14.60374 37106 ft 435 kts 130°
2026-04-25 10:32 43.61841 14.66687 37111 ft 434 kts 130°
2026-04-25 10:32 43.57892 14.72988 37108 ft 434 kts 130°
2026-04-25 10:33 43.53970 14.79239 37105 ft 434 kts 130°
2026-04-25 10:33 43.50018 14.85517 37108 ft 434 kts 130°
2026-04-25 10:34 43.46060 14.91785 37108 ft 434 kts 130°
2026-04-25 10:34 43.42101 14.98046 37106 ft 434 kts 130°
2026-04-25 10:35 43.38168 15.04254 37122 ft 433 kts 130°
2026-04-25 10:35 43.34208 15.10492 37113 ft 433 kts 130°
2026-04-25 10:36 43.30249 15.16718 37109 ft 433 kts 130°
2026-04-25 10:36 43.26287 15.22936 37097 ft 433 kts 130°
2026-04-25 10:37 43.22321 15.29144 37107 ft 433 kts 130°
2026-04-25 10:37 43.18352 15.35343 37115 ft 433 kts 130°
2026-04-25 10:38 43.14405 15.41492 37102 ft 432 kts 130°
2026-04-25 10:38 43.10440 15.47664 37104 ft 432 kts 130°
2026-04-25 10:39 43.06468 15.53823 37112 ft 431 kts 130°
2026-04-25 10:39 43.02498 15.59966 37113 ft 431 kts 130°
2026-04-25 10:40 42.98528 15.66105 37120 ft 431 kts 130°
2026-04-25 10:40 42.94579 15.72193 37112 ft 431 kts 130°
2026-04-25 10:41 42.90603 15.78315 37119 ft 431 kts 130°
2026-04-25 10:41 42.86628 15.84417 37118 ft 430 kts 130°
2026-04-25 10:42 42.82654 15.90507 37114 ft 430 kts 130°
2026-04-25 10:42 42.78703 15.96548 37112 ft 430 kts 130°
2026-04-25 10:43 42.74720 16.02614 37121 ft 430 kts 130°
2026-04-25 10:43 42.70735 16.08673 37114 ft 430 kts 130°
2026-04-25 10:44 42.66754 16.14727 37112 ft 429 kts 130°
2026-04-25 10:44 42.62800 16.20733 37115 ft 429 kts 130°
2026-04-25 10:45 42.58815 16.26762 37111 ft 429 kts 130°
2026-04-25 10:45 42.54828 16.32783 37115 ft 429 kts 130°
2026-04-25 10:46 42.50841 16.38795 37121 ft 429 kts 130°
2026-04-25 10:46 42.46873 16.44756 37118 ft 429 kts 130°
2026-04-25 10:47 42.42880 16.50750 37111 ft 429 kts 130°
2026-04-25 10:47 42.38884 16.56731 37112 ft 428 kts 130°
2026-04-25 10:48 42.34888 16.62696 37112 ft 428 kts 130°
2026-04-25 10:48 42.30925 16.68611 37111 ft 427 kts 130°
2026-04-25 10:49 42.26933 16.74562 37116 ft 427 kts 130°
2026-04-25 10:49 42.22936 16.80498 37112 ft 427 kts 130°
2026-04-25 10:50 42.18938 16.86427 37111 ft 427 kts 130°
2026-04-25 10:50 42.14960 16.92306 37110 ft 427 kts 130°
2026-04-25 10:51 42.10964 16.98214 37110 ft 426 kts 130°
2026-04-25 10:51 42.06967 17.04107 37108 ft 426 kts 130°
2026-04-25 10:52 42.02966 17.09994 37106 ft 426 kts 129°
2026-04-25 10:52 41.98962 17.15874 37103 ft 426 kts 130°
2026-04-25 10:53 41.94974 17.21701 37098 ft 426 kts 130°
2026-04-25 10:53 41.91019 17.27625 37104 ft 426 kts 127°
2026-04-25 10:54 41.87341 17.33834 37099 ft 424 kts 124°
2026-04-25 10:54 41.83747 17.40115 37108 ft 424 kts 124°
2026-04-25 10:55 41.80128 17.46292 37103 ft 424 kts 126°
2026-04-25 10:55 41.76431 17.52463 37101 ft 424 kts 126°
2026-04-25 10:56 41.72736 17.58624 37096 ft 424 kts 126°
2026-04-25 10:56 41.69041 17.64786 37096 ft 424 kts 126°
2026-04-25 10:57 41.65366 17.70896 37098 ft 424 kts 126°
2026-04-25 10:57 41.61666 17.77046 37105 ft 424 kts 125°
2026-04-25 10:58 41.57971 17.83191 37105 ft 424 kts 125°
2026-04-25 10:58 41.54274 17.89327 37098 ft 424 kts 125°
2026-04-25 10:59 41.50597 17.95410 37100 ft 424 kts 126°
2026-04-25 10:59 41.46894 18.01522 37097 ft 424 kts 126°
2026-04-25 11:00 41.43179 18.07627 37097 ft 424 kts 126°
2026-04-25 11:00 41.39464 18.13721 37096 ft 424 kts 126°
2026-04-25 11:01 41.35745 18.19808 37091 ft 424 kts 126°
2026-04-25 11:01 41.32054 18.25855 37093 ft 424 kts 126°
2026-04-25 11:02 41.28337 18.31939 37093 ft 424 kts 126°
2026-04-25 11:02 41.24612 18.38008 37095 ft 424 kts 126°
2026-04-25 11:03 41.20880 18.44071 37106 ft 424 kts 126°
2026-04-25 11:03 41.17144 18.50123 37093 ft 424 kts 126°
2026-04-25 11:04 41.13441 18.56138 37093 ft 424 kts 126°
2026-04-25 11:04 41.09701 18.62180 37090 ft 424 kts 126°
2026-04-25 11:05 41.05955 18.68212 37102 ft 424 kts 126°
2026-04-25 11:05 41.02212 18.74242 37092 ft 423 kts 126°
2026-04-25 11:06 40.98474 18.80259 37100 ft 423 kts 126°
2026-04-25 11:06 40.94756 18.86220 37096 ft 423 kts 126°
2026-04-25 11:07 40.91008 18.92220 37092 ft 423 kts 126°
2026-04-25 11:07 40.87557 18.98464 37088 ft 419 kts 119°
2026-04-25 11:08 40.84411 19.04953 37084 ft 419 kts 119°
2026-04-25 11:08 40.81278 19.11382 37088 ft 419 kts 119°
2026-04-25 11:09 40.78110 19.17856 37086 ft 420 kts 119°
2026-04-25 11:09 40.74941 19.24316 37085 ft 420 kts 119°
2026-04-25 11:10 40.71774 19.30779 37076 ft 420 kts 119°
2026-04-25 11:10 40.68603 19.37233 37072 ft 420 kts 119°
2026-04-25 11:11 40.65447 19.43636 37064 ft 420 kts 119°
2026-04-25 11:11 40.62265 19.50072 37069 ft 420 kts 119°
2026-04-25 11:12 40.59082 19.56512 37060 ft 420 kts 119°
2026-04-25 11:12 40.55899 19.62948 37056 ft 419 kts 119°
2026-04-25 11:13 40.52734 19.69329 37048 ft 420 kts 119°
2026-04-25 11:13 40.49535 19.75745 37048 ft 420 kts 119°
2026-04-25 11:14 40.46336 19.82160 37046 ft 420 kts 119°
2026-04-25 11:14 40.43137 19.88572 37047 ft 420 kts 119°
2026-04-25 11:15 40.39931 19.94973 37042 ft 420 kts 119°
2026-04-25 11:15 40.36746 20.01322 37038 ft 419 kts 119°
2026-04-25 11:16 40.31937 20.10882 37013 ft 419 kts 120°
2026-04-25 11:16 40.28720 20.17258 37030 ft 421 kts 120°
2026-04-25 11:17 40.25510 20.23599 37029 ft 421 kts 120°
2026-04-25 11:17 40.22277 20.29983 37028 ft 421 kts 120°
2026-04-25 11:18 40.19047 20.36359 37026 ft 421 kts 120°
2026-04-25 11:18 40.15804 20.42725 37024 ft 421 kts 120°
2026-04-25 11:19 40.12558 20.49087 37047 ft 420 kts 120°
2026-04-25 11:19 40.09304 20.55373 37036 ft 422 kts 124°
2026-04-25 11:20 40.04990 20.60639 37033 ft 431 kts 143°
2026-04-25 11:20 39.99590 20.64183 36685 ft 435 kts 151°
2026-04-25 11:21 39.96852 20.65844 36152 ft 433 kts 151°
2026-04-25 11:21 39.94131 20.67496 35631 ft 430 kts 151°
2026-04-25 11:21 39.92337 20.68585 35290 ft 429 kts 151°
2026-04-25 11:21 39.89636 20.70226 34778 ft 427 kts 150°
2026-04-25 11:22 39.86950 20.71858 34259 ft 425 kts 150°
2026-04-25 11:22 39.84279 20.73480 33698 ft 423 kts 150°
2026-04-25 11:22 39.80756 20.75617 33016 ft 419 kts 150°
2026-04-25 11:22 39.78974 20.76697 32682 ft 417 kts 150°
2026-04-25 11:23 39.76392 20.78261 32167 ft 414 kts 150°
2026-04-25 11:23 39.73872 20.79993 31682 ft 405 kts 142°
2026-04-25 11:23 39.71710 20.82266 31213 ft 396 kts 130°
2026-04-25 11:23 39.69987 20.84999 31014 ft 388 kts 119°
2026-04-25 11:24 39.67600 20.92390 31027 ft 381 kts 104°
2026-04-25 11:24 39.66289 20.97912 31031 ft 382 kts 104°
2026-04-25 11:25 39.64724 21.04507 31031 ft 383 kts 103°
2026-04-25 11:25 39.63166 21.11066 31035 ft 383 kts 104°
2026-04-25 11:26 39.61599 21.17648 30914 ft 380 kts 104°
2026-04-25 11:26 39.60815 21.20937 30220 ft 386 kts 104°
2026-04-25 11:26 39.60009 21.24325 29684 ft 398 kts 104°
2026-04-25 11:27 39.59191 21.27757 29128 ft 398 kts 104°
2026-04-25 11:27 39.58373 21.31170 28567 ft 396 kts 104°
2026-04-25 11:27 39.57567 21.34517 28056 ft 392 kts 104°
2026-04-25 11:27 39.57019 21.36786 27709 ft 389 kts 104°
2026-04-25 11:28 39.55953 21.41182 27029 ft 384 kts 104°
2026-04-25 11:28 39.55156 21.44468 26484 ft 381 kts 104°
2026-04-25 11:28 39.54367 21.47728 25967 ft 378 kts 104°
2026-04-25 11:28 39.53588 21.50961 25461 ft 374 kts 104°
2026-04-25 11:29 39.52816 21.54169 24954 ft 371 kts 104°
2026-04-25 11:29 39.52050 21.57348 24474 ft 369 kts 104°
2026-04-25 11:29 39.51285 21.60508 24003 ft 366 kts 104°
2026-04-25 11:29 39.50533 21.63596 23522 ft 363 kts 104°
2026-04-25 11:30 39.49774 21.66706 22972 ft 361 kts 104°
2026-04-25 11:30 39.49019 21.69795 22461 ft 358 kts 104°
2026-04-25 11:30 39.48270 21.72858 21958 ft 356 kts 104°
2026-04-25 11:30 39.47526 21.75908 21470 ft 354 kts 104°
2026-04-25 11:31 39.46786 21.78939 21112 ft 352 kts 105°
2026-04-25 11:31 39.46047 21.81965 21036 ft 353 kts 105°
2026-04-25 11:31 39.45305 21.84998 21065 ft 354 kts 105°
2026-04-25 11:31 39.44561 21.88039 21057 ft 354 kts 105°
2026-04-25 11:32 39.43815 21.91076 21056 ft 354 kts 105°
2026-04-25 11:32 39.43076 21.94070 21053 ft 354 kts 105°
2026-04-25 11:32 39.42329 21.97085 20675 ft 351 kts 105°
2026-04-25 11:32 39.41583 22.00091 20140 ft 355 kts 105°
2026-04-25 11:33 39.40815 22.03205 19652 ft 368 kts 105°
2026-04-25 11:33 39.40035 22.06369 19173 ft 370 kts 105°
2026-04-25 11:33 39.39252 22.09534 18710 ft 369 kts 106°
2026-04-25 11:33 39.38467 22.12691 18413 ft 369 kts 106°
2026-04-25 11:34 39.37682 22.15847 18076 ft 368 kts 106°
2026-04-25 11:34 39.36910 22.18946 17784 ft 367 kts 106°
2026-04-25 11:34 39.36128 22.22077 17480 ft 365 kts 106°
2026-04-25 11:34 39.35349 22.25197 17180 ft 364 kts 106°
2026-04-25 11:35 39.34575 22.28302 16872 ft 363 kts 106°
2026-04-25 11:35 39.33802 22.31398 16571 ft 361 kts 106°
2026-04-25 11:35 39.33030 22.34479 16271 ft 360 kts 106°
2026-04-25 11:35 39.32261 22.37542 15974 ft 358 kts 106°
2026-04-25 11:36 39.31494 22.40597 15674 ft 357 kts 106°
2026-04-25 11:36 39.30731 22.43639 15378 ft 355 kts 106°
2026-04-25 11:36 39.29979 22.46628 15098 ft 353 kts 106°
2026-04-25 11:36 39.29220 22.49632 14794 ft 351 kts 106°
2026-04-25 11:37 39.28466 22.52621 14510 ft 350 kts 106°
2026-04-25 11:37 39.27712 22.55605 14212 ft 349 kts 106°
2026-04-25 11:37 39.26961 22.58580 13932 ft 347 kts 106°
2026-04-25 11:37 39.26214 22.61536 13627 ft 346 kts 106°
2026-04-25 11:38 39.25471 22.64477 13337 ft 344 kts 106°
2026-04-25 11:38 39.24730 22.67408 13053 ft 343 kts 106°
2026-04-25 11:38 39.23999 22.70285 12771 ft 341 kts 106°
2026-04-25 11:38 39.23259 22.73184 12490 ft 340 kts 106°
2026-04-25 11:39 39.22522 22.76072 12214 ft 338 kts 106°
2026-04-25 11:39 39.21825 22.78963 11935 ft 336 kts 101°
2026-04-25 11:39 39.21548 22.81929 11653 ft 333 kts 91°
2026-04-25 11:39 39.21435 22.84906 11377 ft 332 kts 92°
2026-04-25 11:40 39.21318 22.87874 11106 ft 331 kts 91°
2026-04-25 11:40 39.21201 22.90827 10830 ft 329 kts 92°
2026-04-25 11:40 39.21080 22.93773 10558 ft 328 kts 92°
2026-04-25 11:40 39.20961 22.96628 10325 ft 318 kts 92°
2026-04-25 11:41 39.20844 22.99413 10204 ft 305 kts 92°
2026-04-25 11:41 39.20726 23.02086 10085 ft 293 kts 92°
2026-04-25 11:41 39.20612 23.04666 9907 ft 284 kts 92°
2026-04-25 11:41 39.20502 23.07188 9628 ft 280 kts 92°
2026-04-25 11:42 39.20396 23.09686 9400 ft 279 kts 92°
2026-04-25 11:42 39.20291 23.12172 9176 ft 277 kts 92°
2026-04-25 11:42 39.20185 23.14641 8951 ft 275 kts 92°
2026-04-25 11:42 39.20081 23.17066 8731 ft 274 kts 92°
2026-04-25 11:43 39.19976 23.19511 8506 ft 273 kts 92°
2026-04-25 11:43 39.19872 23.21945 8286 ft 271 kts 92°
2026-04-25 11:43 39.19766 23.24367 8047 ft 270 kts 91°
2026-04-25 11:43 39.19659 23.26785 7795 ft 269 kts 92°
2026-04-25 11:44 39.19553 23.29186 7551 ft 268 kts 92°
2026-04-25 11:44 39.19446 23.31576 7299 ft 267 kts 91°
2026-04-25 11:44 39.19339 23.33958 7057 ft 266 kts 91°
2026-04-25 11:44 39.19230 23.36332 6811 ft 264 kts 91°
2026-04-25 11:45 39.19123 23.38659 6573 ft 264 kts 91°
2026-04-25 11:45 39.19011 23.41016 6323 ft 263 kts 91°
2026-04-25 11:45 39.18902 23.43363 6076 ft 262 kts 92°
2026-04-25 11:45 39.18796 23.45704 5808 ft 261 kts 91°
2026-04-25 11:46 39.18693 23.48012 5547 ft 254 kts 92°
2026-04-25 11:46 39.18591 23.50261 5293 ft 249 kts 92°
2026-04-25 11:46 39.18488 23.52467 5038 ft 243 kts 91°
2026-04-25 11:46 39.18310 23.54605 4786 ft 239 kts 103°
2026-04-25 11:47 39.17582 23.56503 4533 ft 237 kts 126°
2026-04-25 11:47 39.16353 23.57843 4276 ft 236 kts 150°
2026-04-25 11:47 39.14800 23.58456 4067 ft 233 kts 174°
2026-04-25 11:47 39.13203 23.58243 4010 ft 232 kts 195°
2026-04-25 11:48 39.11710 23.57469 3861 ft 231 kts 207°
2026-04-25 11:48 39.10279 23.56524 3560 ft 231 kts 206°
2026-04-25 11:48 39.08849 23.55586 3262 ft 231 kts 206°
2026-04-25 11:48 39.07415 23.54648 2870 ft 235 kts 206°
2026-04-25 11:49 39.05976 23.53708 2678 ft 229 kts 206°
2026-04-25 11:49 39.04596 23.52805 2549 ft 222 kts 206°
2026-04-25 11:49 39.03243 23.51914 2388 ft 217 kts 209°
2026-04-25 11:49 39.02195 23.50566 2125 ft 215 kts 248°
2026-04-25 11:50 39.02024 23.48727 1902 ft 207 kts 287°
2026-04-25 11:50 39.02711 23.47221 1868 ft 189 kts 322°
2026-04-25 11:50 39.03804 23.46521 1822 ft 168 kts 352°
2026-04-25 11:50 39.04926 23.46609 1780 ft 160 kts 14°
2026-04-25 11:51 39.06004 23.46923 1737 ft 158 kts 13°
2026-04-25 11:51 39.07058 23.47225 1694 ft 157 kts 13°
2026-04-25 11:51 39.08119 23.47529 1649 ft 156 kts 13°
2026-04-25 11:51 39.09179 23.47834 1629 ft 156 kts 13°
2026-04-25 11:52 39.10212 23.48130 1443 ft 147 kts 13°
2026-04-25 11:52 39.11171 23.48402 1228 ft 137 kts 13°
2026-04-25 11:52 39.12087 23.48661 1034 ft 132 kts 12°
2026-04-25 11:52 39.12980 23.48911 852 ft 132 kts 12°
2026-04-25 11:53 39.13884 23.49134 696 ft 133 kts
2026-04-25 11:53 39.14797 23.49309 486 ft 133 kts
2026-04-25 11:53 39.15692 23.49501 311 ft 134 kts 13°
2026-04-25 11:53 39.16567 23.49860 141 ft 132 kts 18°
2026-04-25 11:54 39.17429 23.50230 39 ft 123 kts 16°
2026-04-25 11:54 39.18286 23.50623 382 ft 145 kts 17°
2026-04-25 11:54 39.20337 23.51473 1536 ft 163 kts 15°
2026-04-25 11:55 39.21453 23.51950 2102 ft 174 kts 21°
2026-04-25 11:55 39.22606 23.52540 2704 ft 181 kts 22°
2026-04-25 11:55 39.23674 23.53383 3353 ft 183 kts 50°
2026-04-25 11:55 39.24214 23.54858 3902 ft 190 kts 71°
2026-04-25 11:56 39.24538 23.56501 3993 ft 189 kts 78°
2026-04-25 11:56 39.24392 23.58172 4002 ft 193 kts 114°
2026-04-25 11:56 39.23447 23.59397 4008 ft 200 kts 152°
2026-04-25 11:56 39.22090 23.59959 4022 ft 218 kts 163°
2026-04-25 11:57 39.20568 23.60400 4017 ft 228 kts 165°
2026-04-25 11:57 39.19000 23.60830 3996 ft 235 kts 166°
2026-04-25 11:57 39.17387 23.61280 4002 ft 238 kts 168°
2026-04-25 11:57 39.15755 23.61198 4010 ft 242 kts 194°
2026-04-25 11:58 39.14145 23.60528 4010 ft 244 kts 199°
2026-04-25 11:58 39.12547 23.59775 4010 ft 245 kts 199°
2026-04-25 11:58 39.10951 23.59011 4010 ft 245 kts 199°
2026-04-25 11:58 39.09353 23.58243 4019 ft 246 kts 199°
2026-04-25 11:59 39.07751 23.57473 4013 ft 246 kts 199°
2026-04-25 11:59 39.06148 23.56701 4012 ft 246 kts 199°
2026-04-25 11:59 39.04549 23.55930 3897 ft 245 kts 199°
2026-04-25 12:00 39.01500 23.54398 3598 ft 229 kts 208°
2026-04-25 12:00 39.00400 23.53001 3473 ft 221 kts 244°
2026-04-25 12:00 38.99746 23.49376 3206 ft 202 kts 289°
2026-04-25 12:01 39.00470 23.47932 3033 ft 189 kts 327°
2026-04-25 12:01 39.01601 23.47218 2889 ft 176 kts 343°
2026-04-25 12:01 39.02738 23.46719 2674 ft 171 kts 345°
2026-04-25 12:01 39.03876 23.46282 2398 ft 170 kts 353°
2026-04-25 12:02 39.06086 23.46777 2109 ft 159 kts 15°
2026-04-25 12:02 39.07134 23.47134 2035 ft 157 kts 15°
2026-04-25 12:02 39.08195 23.47469 1823 ft 156 kts 14°
2026-04-25 12:03 39.09255 23.47783 1608 ft 156 kts 13°
2026-04-25 12:03 39.10273 23.48083 1400 ft 143 kts 13°
2026-04-25 12:03 39.11211 23.48362 1213 ft 135 kts 13°
2026-04-25 12:03 39.12118 23.48629 1014 ft 132 kts 12°
2026-04-25 12:04 39.13017 23.48876 809 ft 132 kts
2026-04-25 12:04 39.13910 23.49110 649 ft 133 kts 11°
2026-04-25 12:04 39.14806 23.49358 437 ft 133 kts 10°
2026-04-25 12:04 39.15699 23.49560 269 ft 131 kts
2026-04-25 12:05 39.16586 23.49862 122 ft 133 kts 17°
2026-04-25 12:05 39.17438 23.50246 35 ft 118 kts 10°
2026-04-25 12:05 39.17982 23.50478 44 ft 50 kts 18°
2026-04-25 12:05 39.18277 23.50607 53 ft 39 kts 19°
2026-04-25 12:06 39.18405 23.50645 57 ft 8 kts 354°
2026-04-25 12:06 39.18422 23.50671 60 ft 2 kts 86°
2026-04-25 12:06 39.18407 23.50690 62 ft 3 kts 160°
2026-04-25 12:06 39.18369 23.50662 51 ft 8 kts 220°
2026-04-25 12:07 39.18314 23.50626 55 ft 9 kts 199°
2026-04-25 12:07 39.18246 23.50596 48 ft 11 kts 199°
2026-04-25 12:07 39.18161 23.50557 50 ft 15 kts 199°
2026-04-25 12:07 39.18057 23.50511 46 ft 16 kts 199°
2026-04-25 12:08 39.17966 23.50469 44 ft 9 kts 206°
2026-04-25 12:08 39.17930 23.50396 40 ft 10 kts 245°
2026-04-25 12:08 39.17910 23.50344 41 ft 2 kts 242°
2026-04-25 12:08 39.17909 23.50341 42 ft 0 kts 248°
2026-04-25 12:09 39.17904 23.50330 43 ft 4 kts 236°
2026-04-25 12:09 39.17863 23.50305 42 ft 8 kts 200°
2026-04-25 12:09 39.17814 23.50261 42 ft 6 kts 268°
2026-04-25 12:09 39.17821 23.50234 44 ft 2 kts 289°
2026-04-25 12:10 39.17827 23.50210 44 ft 1 kts 287°
2026-04-25 12:10 39.17827 23.50209 44 ft 1 kts 287°
2026-04-25 12:10 39.17832 23.50190 49 ft 0 kts 288°